Regional Weather Roundup
Issued by NWS

Home | Current Version | Previous Version | Text Only | Print | Product List | Glossary Off
Versions: 1 2 3 4 5 6 7 8 9 10 11 12 13 14 15 16 17 18 19 20 21 22 23 24 25 26 27 28

000
ASUS45 KGTF 041410
RWRMT
MONTANA HOURLY WEATHER ROUNDUP
NATIONAL WEATHER SERVICE GREAT FALLS MT
800 AM MDT MON MAY 04 2015

NOTE: "FAIR" INDICATES FEW OR NO CLOUDS BELOW 12000 FEET WITH NO
SIGNIFICANT WEATHER AND/OR OBSTRUCTIONS TO VISIBILITY.

MTZ001>007-043-041500-
WEST OF THE DIVIDE

CITY           SKY/WX    TMP DP  RH WIND       PRES   REMARKS
KALISPELL      SUNNY     42  32  67 W5        29.94R
MISSOULA       SUNNY     37  27  67 CALM      29.99R
BUTTE          SUNNY     39  31  72 E3        30.01R
DEER LODGE       N/A     39  27  60 CALM      30.02R
EUREKA           N/A     37  28  70 CALM      29.99R
HAMILTON         N/A     45  27  49 S9        29.97R
LIBBY            N/A     37  28  70 CALM      29.97S
$$

MTZ008-052>055-041500-
SOUTHWEST MONTANA

CITY           SKY/WX    TMP DP  RH WIND       PRES   REMARKS
BOZEMAN        PTSUNNY   45  37  73 CALM      29.99S
DILLON         SUNNY     45  31  58 S5        30.00R
$$

MTZ009-010-012-014-046-048-049-054-041500-
EAST SLOPES AND CENTRAL MONTANA

CITY           SKY/WX    TMP DP  RH WIND       PRES   REMARKS
CUT BANK       SUNNY     40  27  59 CALM      29.96R
GREAT FALLS    SUNNY     44  31  60 CALM      29.95S
MALMSTROM AFB  SUNNY     42  36  79 SE3       29.96S
HELENA         SUNNY     42  29  59 CALM      29.98R
$$

MTZ011-013-016-021-045-047-050-051-041500-
NORTH CENTRAL MONTANA

CITY           SKY/WX    TMP DP  RH WIND       PRES   REMARKS
HAVRE          SUNNY     46  31  55 E14       29.96S
LEWISTOWN      SUNNY     49  38  65 SE3       29.98S
CHINOOK          N/A     45  28  53 E16G22    29.99S
FORT BENTON      N/A     48  30  49 E6        29.97F
$$

MTZ017>020-022>042-056>058-061-062-041500-
EASTERN PLAINS

CITY           SKY/WX    TMP DP  RH WIND       PRES   REMARKS
BAKER          MOSUNNY   50  31  48 SE18      30.15S
BILLINGS       MOSUNNY   45  35  68 SW7       30.01R
GLASGOW        SUNNY     48  25  40 E20G26    30.06S
JORDAN           N/A     51  30  44 SE13G18   30.04S
LIVINGSTON     SUNNY     41  33  73 NW6       30.02S
MILES CITY     CLOUDY    52  33  48 SE12      30.08R
SIDNEY         SUNNY     52  28  40 S9        30.15S
WOLF POINT     SUNNY     47  29  49 E12       30.12S
BIG TIMBER       N/A     45  36  70 CALM      30.03S
FORSYTH          N/A     54  37  54 E7        30.04F
PLENTYWOOD       N/A     48  27  43 SE7       30.16R
POPLAR           N/A     48  27  43 E9        30.13S
$$

REGIONAL REPORTS...DAKOTAS

CITY           SKY/WX    TMP DP  RH WIND       PRES   REMARKS
WILLISTON      MOSUNNY   48  29  47 CALM      30.17R
MINOT          SUNNY     51  32  48 SW8       30.18R
DICKINSON      MOSUNNY   52  28  39 SE15      30.18R
BEACH          FAIR      50  27  40 SE18G25   30.17S
CROSBY         FAIR      46  32  57 S7        30.19R
WATFORD CITY   FAIR      48  28  46 E5        30.16R
BISMARCK       PTSUNNY   44  31  60 CALM      30.23R
GRAND FORKS    MOSUNNY   50  36  58 CALM      30.22R
FARGO          PTSUNNY   54  34  46 E5        30.20R
BUFFALO SD       N/A     49  34  56 S17       30.13R
RAPID CITY     LGT RAIN  44  41  89 E5        30.22R FOG
$$

REGIONAL REPORTS...WYOMING/IDAHO/WASHINGTON

CITY           SKY/WX    TMP DP  RH WIND       PRES   REMARKS
GILLETTE       CLOUDY    47  38  71 SE20G30   30.09R
SHERIDAN       MOSUNNY   51  43  74 SE15      30.02R
BUFFALO WY     CLOUDY    49  43  80 S14       30.07R
CODY           SUNNY     50  37  62 CALM      30.04R
YELLOWSTONE LA   N/A     33  30  88 CALM      30.15R
IDAHO FALLS    MOSUNNY   44  41  89 N5        29.99R
SALMON           N/A     39  34  81 N3        30.00R
BOISE          MOSUNNY   59  33  37 E5        29.89R
SPOKANE        SUNNY     47  30  51 NE8       29.89S
$$

REGIONAL REPORTS...ALBERTA

CITY           SKY/WX    TMP DP  RH WIND       PRES   REMARKS
EDMONTON       PTSUNNY   43  36  75 E10       29.98F
CALGARY        MOSUNNY   43  28  56 CALM      29.95S
LETHBRIDGE     SUNNY     36  28  75 SW10      29.95S WCI  28
MEDICINE HAT   SUNNY     46  30  53 NE8       29.96F
$$

REGIONAL REPORTS...SASKATCHEWAN

CITY           SKY/WX    TMP DP  RH WIND       PRES   REMARKS
SWIFT CURRENT  SUNNY     46  32  57 SE10      30.07S
REGINA         MOSUNNY   45  34  65 SE5       30.16R
SASKATOON      SUNNY     43  32  65 S5        30.13F
$$



USA.gov is the U.S. government's official web portal to all federal, state and local government web resources and services.